KB1LTW-13 Weather Reports


time (UTC)temp
C
wind
direction
speed
KPH
gust
KPH
rain 1hr
cm
rain 24hr
cm
rain mn
cm
humidity
%
barometer
mb
20260502152200 10 348 1.6 4.8 0.00 0.00 0.00 77 1013.6
20260502151127 10 0.0 1.6 0.00 0.00 0.00 78 1013.7
20260502150117 11 229 1.6 3.2 0.00 0.00 0.00 77 1013.7
20260502140118 9 67 0.0 3.2 0.00 0.00 0.00 84 1013.9
20260502130139 8 140 0.0 1.6 0.00 0.00 0.00 92 1013.8
20260502123122 8 98 0.0 4.8 0.00 0.00 0.00 93 1014.2
20260502122143 8 113 1.6 3.2 0.00 0.00 0.00 94 1013.9
20260502121130 8 0.0 0.0 0.00 0.00 0.00 95 1013.9
20260502120120 7 0.0 0.0 0.00 0.00 0.00 95 1014.2
20260502115121 7 110 0.0 1.6 0.00 0.00 0.00 96 1014.2
20260502114122 7 0.0 0.0 0.00 0.00 0.00 96 1014.2
20260502113116 7 0.0 0.0 0.00 0.00 0.00 96 1014.0
20260502112125 7 0.0 0.0 0.00 0.00 0.00 97 1013.9
20260502111131 7 0.0 0.0 0.00 0.00 0.00 96 1014.3
20260502110121 7 0.0 0.0 0.00 0.00 0.00 96 1014.4
20260502105123 7 0.0 0.0 0.00 0.00 0.00 96 1014.6
20260502104123 7 0.0 0.0 0.00 0.00 0.00 96 1014.4
20260502103125 7 0.0 0.0 0.00 0.00 0.00 96 1014.1
20260502102125 7 0.0 0.0 0.00 0.00 0.00 96 1013.7
20260502101118 7 0.0 0.0 0.00 0.00 0.00 96 1013.8
20260502100122 7 0.0 0.0 0.00 0.00 0.00 95 1014.0
20260502091124 7 0.0 0.0 0.00 0.00 0.00 94 1013.7
20260502090119 7 0.0 0.0 0.00 0.00 0.00 94 1013.8
20260502071146 7 0.0 0.0 0.00 0.00 0.00 90 1013.3
20260502070141 8 0.0 0.0 0.00 0.00 0.00 88 1013.7
20260502065120 8 0.0 0.0 0.00 0.00 0.00 87 1013.6
20260502064115 8 0.0 0.0 0.00 0.00 0.00 86 1013.5
20260502063117 7 0.0 0.0 0.00 0.00 0.00 87 1013.7
20260502062119 8 0.0 0.0 0.00 0.00 0.00 88 1013.8
20260502061141 8 0.0 0.0 0.00 0.00 0.00 84 1013.6
20260502060120 8 0.0 0.0 0.00 0.00 0.00 84 1013.6
20260502055124 8 0.0 0.0 0.00 0.00 0.00 82 1013.8
20260502054116 8 0.0 0.0 0.00 0.00 0.00 79 1013.5
20260502053117 9 0.0 0.0 0.00 0.00 0.00 75 1013.5
20260502052125 9 0.0 0.0 0.00 0.00 0.00 69 1013.7
20260502051204 9 0.0 0.0 0.00 0.00 0.00 70 1014.0
20260502050118 9 0.0 0.0 0.00 0.00 0.00 70 1014.0
20260502045116 9 0.0 0.0 0.00 0.00 0.00 69 1014.3
20260502044117 8 0.0 0.0 0.00 0.00 0.00 70 1014.0
20260502043118 8 0.0 0.0 0.00 0.00 0.00 71 1014.0
20260502042121 8 0.0 0.0 0.00 0.00 0.00 72 1013.8
20260502041121 8 0.0 0.0 0.00 0.00 0.00 72 1013.8
20260502040116 8 0.0 0.0 0.00 0.00 0.00 71 1013.7
20260502035138 8 0.0 0.0 0.00 0.00 0.00 73 1014.0
20260502034118 9 0.0 0.0 0.00 0.00 0.00 71 1014.0
20260502033120 9 0.0 0.0 0.00 0.00 0.00 64 1014.0
20260502032116 9 0.0 0.0 0.00 0.00 0.00 65 1014.0
20260502031122 9 0.0 0.0 0.00 0.00 0.00 65 1014.3
20260502030128 9 0.0 0.0 0.00 0.00 0.00 64 1014.0
20260502025118 9 0.0 0.0 0.00 0.00 0.00 58 1014.0
20260502024119 10 0.0 0.0 0.00 0.00 0.00 60 1014.1
20260502023120 10 0.0 0.0 0.00 0.00 0.00 59 1014.1
20260502022125 10 0.0 0.0 0.00 0.00 0.00 58 1014.1
20260502021121 10 0.0 0.0 0.00 0.00 0.00 59 1014.1
20260502020150 10 0.0 0.0 0.00 0.00 0.00 56 1014.2
20260502015120 10 0.0 0.0 0.00 0.00 0.00 58 1014.0
20260502014121 10 0.0 0.0 0.00 0.00 0.00 55 1013.8
20260502013125 11 0.0 0.0 0.00 0.00 0.00 54 1013.7
20260502012125 11 0.0 0.0 0.00 0.00 0.00 52 1013.8
20260502011124 11 0.0 0.0 0.00 0.00 0.00 52 1013.6
20260502010131 11 0.0 0.0 0.00 0.00 0.00 53 1013.5
20260502005201 11 0.0 0.0 0.00 0.00 0.00 50 1013.6
20260502004122 12 0.0 0.0 0.00 0.00 0.00 54 1013.4
20260502003118 12 0.0 0.0 0.00 0.00 0.00 50 1013.3
20260502002124 12 0.0 0.0 0.00 0.00 0.00 50 1013.2
20260502001123 12 0.0 0.0 0.00 0.00 0.00 48 1013.0
20260502000132 12 0.0 0.0 0.00 0.00 0.00 47 1012.8
20260501235122 12 0.0 0.0 0.00 0.00 0.00 48 1012.6
20260501234123 13 0.0 0.0 0.00 0.00 0.00 46 1012.5
20260501233124 13 0.0 0.0 0.00 0.00 0.00 41 1012.4
20260501232125 13 0.0 0.0 0.00 0.00 0.00 43 1012.4
20260501231126 13 0.0 0.0 0.00 0.00 0.00 42 1012.3
20260501230116 13 0.0 0.0 0.00 0.00 0.00 39 1012.2
20260501225123 13 0.0 0.0 0.00 0.00 0.00 39 1012.2
20260501224124 14 176 1.6 3.2 0.00 0.00 0.00 37 1012.1
20260501223146 15 140 1.6 4.8 0.00 0.00 0.00 35 1012.0
20260501222125 14 115 0.0 3.2 0.00 0.00 0.00 36 1012.1
20260501221145 15 0.0 1.6 0.00 0.00 0.00 35 1012.1
20260501220117 16 309 3.2 3.2 0.00 0.00 0.00 33 1012.1
20260501215124 16 170 0.0 3.2 0.00 0.00 0.00 33 1012.1
20260501214125 16 313 3.2 6.4 0.00 0.00 0.00 33 1012.3
20260501213116 16 211 1.6 3.2 0.00 0.00 0.00 32 1012.0
20260501212116 15 114 1.6 9.7 0.00 0.00 0.00 34 1012.1
20260501211116 15 155 0.0 3.2 0.00 0.00 0.00 34 1012.1
20260501210119 16 239 3.2 6.4 0.00 0.00 0.00 34 1012.1
20260501205125 15 2 0.0 3.2 0.00 0.00 0.00 33 1012.1
20260501204146 15 176 1.6 3.2 0.00 0.00 0.00 35 1011.9
20260501203117 16 184 1.6 4.8 0.00 0.00 0.00 34 1012.4
20260501202117 16 199 3.2 4.8 0.00 0.00 0.00 32 1012.0
20260501201137 15 144 3.2 6.4 0.00 0.00 0.00 35 1012.0
20260501200120 16 214 3.2 4.8 0.00 0.00 0.00 34 1012.1
20260501195126 15 310 3.2 4.8 0.00 0.00 0.00 35 1012.2
20260501194116 15 341 3.2 4.8 0.00 0.00 0.00 33 1012.2
20260501193142 15 180 1.6 3.2 0.00 0.00 0.00 35 1012.1
20260501192118 15 176 1.6 9.7 0.00 0.00 0.00 34 1012.3
20260501191118 15 189 3.2 6.4 0.00 0.00 0.00 34 1012.4
20260501190126 15 205 4.8 6.4 0.00 0.00 0.00 33 1012.6
20260501185145 15 150 6.4 9.7 0.00 0.00 0.00 35 1012.6
20260501184125 15 303 4.8 6.4 0.00 0.00 0.00 34 1012.8
20260501183118 15 313 8.0 12.9 0.00 0.00 0.00 34 1013.1
20260501182118 15 194 3.2 11.3 0.00 0.00 0.00 34 1013.0
20260501181119 15 182 3.2 11.3 0.00 0.00 0.00 35 1012.9
20260501180121 15 135 3.2 6.4 0.00 0.00 0.00 34 1012.8
20260501175118 15 13 3.2 6.4 0.00 0.00 0.00 36 1013.0
20260501174124 15 143 1.6 6.4 0.00 0.00 0.00 36 1013.1
20260501173119 15 173 3.2 11.3 0.00 0.00 0.00 34 1013.1
20260501172120 14 180 3.2 4.8 0.00 0.00 0.00 36 1013.0
20260501171120 15 200 3.2 12.9 0.00 0.00 0.00 32 1013.1
20260501170141 14 166 3.2 6.4 0.00 0.00 0.00 35 1013.2
20260501165136 13 113 1.6 3.2 0.00 0.00 0.00 35 1013.1
20260501164116 15 190 3.2 6.4 0.00 0.00 0.00 35 1013.1
20260501163120 14 188 4.8 17.7 0.00 0.00 0.00 36 1013.2
20260501162121 13 269 3.2 6.4 0.00 0.00 0.00 37 1013.2
20260501161118 13 302 6.4 14.5 0.00 0.00 0.00 39 1013.4
20260501160126 13 326 6.4 14.5 0.00 0.00 0.00 37 1013.4
20260501155125 13 296 6.4 12.9 0.00 0.00 0.00 37 1013.5
20260501154120 13 144 1.6 4.8 0.00 0.00 0.00 40 1013.6
20260501153141 12 157 3.2 4.8 0.00 0.00 0.00 41 1013.6